Hourly Data Report for June 08, 2021

MIRAMICHI RCS
NEW BRUNSWICK
Current Station Operator: ECCC - MSC

47°00'34.000" N
65°27'54.000" W
33.00 m
8100989
71744
ACQ

Download Data

Hourly Data (June 2021)
Hourly Data Report for June 8, 2021
TIME
LST
Temp Definition
°C
Dew Point Definition
°C
Rel Hum Definition
%
Precip. Amount Definition
mm

Wind Dir Definition
10's deg

Wind Spd Definition
km/h
Visibility Definition
km
Stn Press Definition
kPa
Hmdx Definition


Wind Chill Definition


Weather Definition


00:00 26.3 16.1 53 LegendMM 24 19   100.19 31   LegendNANA
01:00 24.0 15.9 61 LegendMM 23 12   100.20 29   LegendNANA
02:00 23.8 15.7 60 LegendMM 23 16   100.20 28   LegendNANA
03:00 23.2 15.9 63 LegendMM 23 15   100.20 28   LegendNANA
04:00 22.7 15.8 65 LegendMM 23 14   100.20 27   LegendNANA
05:00 22.5 16.2 68 LegendMM 23 16   100.24 27   LegendNANA
06:00 23.6 17.0 67 LegendMM 23 19   100.28 29   LegendNANA
07:00 24.8 18.1 66 LegendMM 24 20   100.29 31   LegendNANA
08:00 26.2 19.1 65 LegendMM 24 17   100.31 33   LegendNANA
09:00 28.7 20.1 60 LegendMM 25 15   100.33 36   LegendNANA
10:00 30.8 19.2 50 LegendMM 28 17   100.33 38   LegendNANA
11:00 31.0 19.4 50 LegendMM 29 15   100.34 38   LegendNANA
12:00 31.1 18.2 46 LegendMM 27 15   100.31 37   LegendNANA
13:00 32.9 16.5 37 LegendMM 28 18   100.28 38   LegendNANA
14:00 33.7 16.6 36 LegendMM 30 15   100.26 39   LegendNANA
15:00 33.6 14.0 31 LegendMM 30 20   100.27 37   LegendNANA
16:00 33.7 12.1 27 LegendMM 30 19   100.27 36   LegendNANA
17:00 33.0 11.4 27 LegendMM 28 20   100.30 35   LegendNANA
18:00 32.1 10.8 27 LegendMM 28 17   100.33 34   LegendNANA
19:00 30.7 10.9 30 LegendMM 27 12   100.39 32   LegendNANA
20:00 28.1 10.2 33 LegendMM 26 5   100.47 29   LegendNANA
21:00 25.4 10.2 38 LegendMM 5 6   100.55 27   LegendNANA
22:00 21.4 11.0 51 LegendMM 9 13   100.63     LegendNANA
23:00 19.5 10.9 57 LegendMM 8 11   100.69     LegendNANA

Notes on Data Quality.

Legend

  • E = Estimated
  • M = Missing
  • NA = Not Available*
  • [empty] = Indicates an unobserved value
Date modified: